TimeCST,TemperatureF,Dew PointF,Humidity,Sea Level PressureIn,VisibilityMPH,Wind Direction,Wind SpeedMPH,Gust SpeedMPH,PrecipitationIn,Events,Conditions,WindDirDegrees,DateUTC
12:15 AM,39.2,30.2,70,29.87,10.0,WSW,5.8,-,N/A,,Clear,250,2013-12-02 06:15:00
12:35 AM,39.2,30.2,70,29.87,10.0,WSW,6.9,-,N/A,,Clear,250,2013-12-02 06:35:00
12:55 AM,39.2,30.2,70,29.86,10.0,WSW,5.8,-,N/A,,Clear,240,2013-12-02 06:55:00
1:15 AM,37.4,30.2,75,29.84,10.0,SW,4.6,-,N/A,,Clear,220,2013-12-02 07:15:00
1:35 AM,37.4,30.2,75,29.84,10.0,Calm,Calm,-,N/A,,Clear,0,2013-12-02 07:35:00
1:55 AM,35.6,28.4,75,29.84,10.0,SSW,4.6,-,N/A,,Partly Cloudy,200,2013-12-02 07:55:00
2:15 AM,33.8,28.4,81,29.84,10.0,South,6.9,-,N/A,,Clear,180,2013-12-02 08:15:00
2:35 AM,33.8,28.4,81,29.84,10.0,SSW,6.9,-,N/A,,Clear,200,2013-12-02 08:35:00
2:55 AM,33.8,28.4,81,29.83,9.0,South,6.9,-,N/A,,Clear,180,2013-12-02 08:55:00
3:15 AM,35.6,30.2,81,29.82,8.0,South,6.9,-,N/A,,Clear,190,2013-12-02 09:15:00
3:35 AM,35.6,30.2,81,29.82,7.0,South,6.9,-,N/A,,Clear,190,2013-12-02 09:35:00
3:55 AM,35.6,30.2,81,29.81,8.0,SSW,8.1,-,N/A,,Clear,200,2013-12-02 09:55:00
4:15 AM,35.6,30.2,81,29.80,8.0,South,6.9,-,N/A,,Clear,190,2013-12-02 10:15:00
4:35 AM,35.6,30.2,81,29.79,7.0,South,6.9,-,N/A,,Clear,190,2013-12-02 10:35:00
4:55 AM,33.8,28.4,81,29.79,6.0,South,5.8,-,N/A,,Clear,190,2013-12-02 10:55:00
5:15 AM,33.8,28.4,81,29.78,7.0,SSW,8.1,-,N/A,,Clear,200,2013-12-02 11:15:00
5:35 AM,33.8,30.2,87,29.77,6.0,South,6.9,-,N/A,,Clear,190,2013-12-02 11:35:00
5:55 AM,33.8,28.4,81,29.77,5.0,South,6.9,-,N/A,,Clear,180,2013-12-02 11:55:00
6:15 AM,33.8,28.4,81,29.76,4.0,South,6.9,-,N/A,,Clear,180,2013-12-02 12:15:00
6:35 AM,33.8,28.4,81,29.76,5.0,South,6.9,-,N/A,,Clear,170,2013-12-02 12:35:00
6:55 AM,32.0,28.4,87,29.76,4.0,South,5.8,-,N/A,,Clear,180,2013-12-02 12:55:00
7:15 AM,32.0,26.6,80,29.76,4.0,South,5.8,-,N/A,,Clear,170,2013-12-02 13:15:00
7:35 AM,30.2,26.6,86,29.77,2.5,South,6.9,-,N/A,,Clear,190,2013-12-02 13:35:00
7:55 AM,30.2,26.6,86,29.76,1.8,South,6.9,-,N/A,,Clear,180,2013-12-02 13:55:00
8:15 AM,30.2,26.6,86,29.76,3.0,SSW,6.9,-,N/A,,Clear,200,2013-12-02 14:15:00
8:35 AM,33.8,30.2,87,29.76,4.0,SW,9.2,-,N/A,,Clear,220,2013-12-02 14:35:00
8:55 AM,35.6,30.2,81,29.75,4.0,SSW,9.2,-,N/A,,Clear,210,2013-12-02 14:55:00
9:15 AM,37.4,33.8,87,29.75,5.0,SW,9.2,-,N/A,,Clear,230,2013-12-02 15:15:00
9:35 AM,37.4,33.8,87,29.75,6.0,SSW,9.2,-,N/A,,Clear,210,2013-12-02 15:35:00
9:55 AM,39.2,33.8,81,29.75,7.0,SW,9.2,-,N/A,,Clear,220,2013-12-02 15:55:00
10:15 AM,39.2,35.6,87,29.75,9.0,SSW,9.2,-,N/A,,Clear,210,2013-12-02 16:15:00
10:35 AM,41.0,33.8,76,29.75,9.0,SSW,9.2,-,N/A,,Clear,210,2013-12-02 16:35:00
10:55 AM,42.8,35.6,76,29.75,10.0,SSW,6.9,-,N/A,,Clear,210,2013-12-02 16:55:00
11:15 AM,44.6,35.6,71,29.74,10.0,SW,8.1,-,N/A,,Clear,220,2013-12-02 17:15:00
11:35 AM,46.4,35.6,66,29.73,10.0,SSW,9.2,-,N/A,,Clear,200,2013-12-02 17:35:00
11:55 AM,48.2,35.6,62,29.72,10.0,SW,10.4,-,N/A,,Clear,220,2013-12-02 17:55:00
12:15 PM,51.8,37.4,58,29.70,10.0,South,6.9,-,N/A,,Clear,180,2013-12-02 18:15:00
12:35 PM,53.6,35.6,51,29.69,10.0,South,8.1,-,N/A,,Clear,190,2013-12-02 18:35:00
12:55 PM,55.4,35.6,47,29.68,10.0,South,9.2,-,N/A,,Clear,190,2013-12-02 18:55:00
1:15 PM,55.4,35.6,47,29.67,10.0,SSW,9.2,-,N/A,,Clear,210,2013-12-02 19:15:00
1:35 PM,57.2,35.6,44,29.67,10.0,WSW,6.9,-,N/A,,Clear,240,2013-12-02 19:35:00
1:55 PM,57.2,35.6,44,29.65,10.0,SW,9.2,-,N/A,,Clear,220,2013-12-02 19:55:00
2:15 PM,57.2,35.6,44,29.65,10.0,SW,8.1,-,N/A,,Clear,230,2013-12-02 20:15:00
2:35 PM,57.2,35.6,44,29.64,10.0,SW,9.2,-,N/A,,Clear,230,2013-12-02 20:35:00
2:55 PM,57.2,35.6,44,29.64,10.0,SW,10.4,-,N/A,,Clear,220,2013-12-02 20:55:00
3:15 PM,57.2,35.6,44,29.63,10.0,SW,10.4,-,N/A,,Clear,220,2013-12-02 21:15:00
3:35 PM,57.2,35.6,44,29.63,10.0,SSW,11.5,-,N/A,,Clear,200,2013-12-02 21:35:00
3:55 PM,55.4,35.6,47,29.63,10.0,SSW,9.2,-,N/A,,Clear,200,2013-12-02 21:55:00
4:15 PM,55.4,35.6,47,29.63,10.0,South,9.2,-,N/A,,Clear,190,2013-12-02 22:15:00
4:35 PM,53.6,35.6,51,29.63,10.0,SSW,9.2,-,N/A,,Clear,210,2013-12-02 22:35:00
4:55 PM,50.0,35.6,58,29.63,10.0,SSW,11.5,-,N/A,,Clear,200,2013-12-02 22:55:00
5:15 PM,50.0,35.6,58,29.63,10.0,South,11.5,-,N/A,,Clear,190,2013-12-02 23:15:00
5:35 PM,48.2,35.6,62,29.65,10.0,SW,9.2,-,N/A,,Clear,230,2013-12-02 23:35:00
5:55 PM,46.4,35.6,66,29.66,10.0,SW,11.5,-,N/A,,Clear,220,2013-12-02 23:55:00
6:15 PM,46.4,35.6,66,29.65,10.0,SSW,10.4,-,N/A,,Clear,200,2013-12-03 00:15:00
6:35 PM,44.6,35.6,71,29.65,10.0,SSW,9.2,-,N/A,,Clear,200,2013-12-03 00:35:00
6:55 PM,42.8,33.8,70,29.64,10.0,SSW,8.1,-,N/A,,Clear,200,2013-12-03 00:55:00
7:15 PM,42.8,35.6,76,29.65,10.0,South,10.4,-,N/A,,Clear,190,2013-12-03 01:15:00
7:35 PM,42.8,35.6,76,29.64,8.0,South,9.2,-,N/A,,Clear,190,2013-12-03 01:35:00
7:55 PM,42.8,35.6,76,29.63,7.0,South,10.4,-,N/A,,Clear,190,2013-12-03 01:55:00
8:15 PM,42.8,35.6,76,29.63,7.0,South,10.4,-,N/A,,Clear,190,2013-12-03 02:15:00
8:35 PM,41.0,33.8,76,29.63,5.0,South,9.2,-,N/A,,Clear,190,2013-12-03 02:35:00
8:55 PM,42.8,35.6,76,29.62,6.0,SSW,11.5,-,N/A,,Clear,200,2013-12-03 02:55:00
9:15 PM,42.8,35.6,76,29.63,6.0,SSW,10.4,-,N/A,,Clear,200,2013-12-03 03:15:00
9:35 PM,42.8,35.6,76,29.64,6.0,SSW,11.5,-,N/A,,Clear,200,2013-12-03 03:35:00
9:55 PM,42.8,35.6,76,29.63,6.0,SSW,10.4,-,N/A,,Clear,200,2013-12-03 03:55:00
10:15 PM,41.0,33.8,76,29.63,5.0,South,10.4,-,N/A,,Clear,190,2013-12-03 04:15:00
10:35 PM,41.0,35.6,81,29.62,6.0,South,10.4,-,N/A,,Clear,190,2013-12-03 04:35:00
10:55 PM,41.0,35.6,81,29.62,7.0,SSW,10.4,-,N/A,,Clear,200,2013-12-03 04:55:00
11:15 PM,42.8,35.6,76,29.61,7.0,SSW,9.2,-,N/A,,Clear,200,2013-12-03 05:15:00
11:35 PM,39.2,33.8,81,29.61,7.0,SSW,6.9,-,N/A,,Clear,200,2013-12-03 05:35:00
11:55 PM,39.2,33.8,81,29.61,6.0,SSW,8.1,-,N/A,,Clear,200,2013-12-03 05:55:00